カタリナ-ニート彗星

395P/Catalina-NEAT (2021)

English version
Home page
Updated on May 24, 2020

---------------------------------------------------------------------

・ プロフィール

符号 395P/2020 H1
検出日 2020年4月26日
検出光度 21.0等
検出者 Erwin Schwab (Egelsbach, Germany), D. Abreu (European Space Agency's Optical Ground Station, Tenerife)

・ 写真集

・ 軌道要素

Epoch 2021 Dec. 12.0 TT = JDT 2459560.5                                         
T 2021 Dec. 30.46223 TT                                 Bell                    
q   4.0648913            (2000.0)            P               Q                  
n   0.05865859     Peri.   89.85088     +0.68740006     +0.72520638             
a   6.5601681      Node   223.66286     -0.68701460     +0.63165617             
e   0.3803678      Incl.    3.27623     -0.23556760     +0.27401859             
P  16.8                                                                         
From 187 observations 2005 May 12-2020 Apr. 27, mean residual 0".9.             

・ 光度変化

        m1 = 9.5 + 5 logΔ + 10.0 log r

---------------------------------------------------------------------

軌道要素はM.P.E.C. 2020-H202に掲載されたものです。
光度グラフはComet for Windowsで作成したものです。

---------------------------------------------------------------------

Copyright(C) Seiichi Yoshida (comet@aerith.net). All rights reserved.